Regional Weather Roundup
Issued by NWS

Home | Current Version | Previous Version | Text Only | Print | Product List | Glossary Off
Versions: 1 2 3 4 5 6 7 8 9 10 11 12 13 14 15 16 17 18 19 20 21 22 23 24 25 26 27 28 29 30 31 32 33 34 35 36 37 38 39 40 41 42 43 44 45 46 47 48 49 50

000
ASUS45 KTFX 210019
RWRMT
MONTANA HOURLY WEATHER ROUNDUP
NATIONAL WEATHER SERVICE GREAT FALLS MT
619 PM MDT WED AUG 20 2014

NOTE: "FAIR" INDICATES FEW OR NO CLOUDS BELOW 12000 FEET WITH NO
SIGNIFICANT WEATHER AND/OR OBSTRUCTIONS TO VISIBILITY.

* THESE STATIONS ARE NOT UNDER NWS QUALITY CONTROL. THEY DO NOT
   REPORT WEATHER SUCH AS PRECIPITATION OR FOG.

MTZ001>007-043-210100-
WEST OF THE DIVIDE
CITY           SKY/WX    TMP DP  RH WIND       PRES   REMARKS
MISSOULA       PTCLDY    75  50  42 NW8       29.84S
BUTTE          CLOUDY    61  46  58 CALM      29.99S
MULLAN PASS    PTCLDY    57  48  72 CALM      29.99F
* ESSEX        N/A       70  47  44 NE3        N/A
* LINCOLN      N/A       73  44  35 S6G16      N/A
* LOOKOUT PASS N/A       63  50  63 N/A        N/A
* POLSON       N/A       68  54  61 N1G6       N/A
* RONAN APT    CLEAR     73  50  44 W5         N/A
* SEELEY LAKE  N/A       72  46  40 N4G11      N/A
* THOMP F APT  MOCLDY    75  55  50 SW7        N/A
* YAAK HILL    N/A       62  58  87 N/A        N/A
$$

MTZ008-052>055-210100-
SOUTHWEST MONTANA
CITY           SKY/WX    TMP DP  RH WIND       PRES   REMARKS
BOZEMAN        CLOUDY    70  48  46 SE14      29.94S
DILLON         CLOUDY    66  45  47 SW9       29.95R
W YELLOWSTONE  RAIN      50  48  93 CALM      30.12R VSB 2 1/2
* THREE FORKS  CLOUDY    68  55  63 SW7        N/A
* BOULDER HILL N/A       60  48  65 S4         N/A
* RAYNOLDS PAS N/A       50   9  19 NE8G14     N/A
* WHITEHALL    N/A       64  44  48 W6         N/A
* WISE RIVER   N/A       63  45  52 SE6G12     N/A
$$

MTZ009>010-012-014-046-048-049-054-210100-
EAST SLOPES AND CENTRAL MONTANA
CITY           SKY/WX    TMP DP  RH WIND       PRES   REMARKS
CUT BANK       CLOUDY    57  52  83 NW16G24   29.93R
GREAT FALLS    CLOUDY    73  46  38 SW3       29.84R
HELENA         CLOUDY    72  50  46 SE15G21   29.88S
MALMSTROM AFB  CLOUDY    73  48  41 S7        29.85R
* CONRAD       MOCLDY    72  55  55 N9         N/A
* DEARBORN     N/A       76  47  36 VRB2       N/A
* EAST GLACIER N/A       66  47  51 W7         N/A
* MONARCH      N/A       62  43  50 SW16       N/A
* PENDROY      N/A       70  51  51 NW6        N/A
* ROGERS PASS  N/A       69  36  30 SE4G9      N/A
* SAINT MARY   N/A       58  46  65 N14G24     N/A
* SWEET GRASS  N/A       64  56  75 N16        N/A
* WHITE SULPH  N/A       62  47  58 NW13G22    N/A
$$

MTZ011-013-016-021-035-040-045-047-050-051-210100-
NORTH CENTRAL MONTANA
CITY           SKY/WX    TMP DP  RH WIND       PRES   REMARKS
HAVRE          CLOUDY    70  54  57 N20G26    29.81R
LEWISTOWN      MOCLDY    68  54  61 E6        29.89R
* FORT BENTON  CLOUDY    79  48  34 NW12G21   29.81R
* CHESTER      N/A       69  53  57 NE8G14     N/A
* DENTON       N/A       70  50  49 NE14G21    N/A
* GEYSER       N/A       70  48  46 SE7        N/A
* JUDITH GAP   N/A       65  53  65 N9G15      N/A
* LOMA         N/A       76  48  37 N19G24     N/A
$$

MTZ017>020-022>027-061-062-210100-
NORTHEAST MONTANA
CITY           SKY/WX    TMP DP  RH WIND       PRES   REMARKS
GLASGOW        PTCLDY    81  54  39 NW10      29.75F
GLENDIVE       CLOUDY    73  61  66 E7        29.78S
JORDAN         PTCLDY    79  54  42 NE6       29.78F
SIDNEY         CLOUDY    72  63  73 S3        29.76S
WOLF POINT     MOCLDY    81  54  39 N6        29.75S
* BEAVER HILL  N/A       70  59  68 N/A        N/A
* CIRCLE       N/A       77  57  50 W5         N/A
* LINDSAY DVD  N/A       76  57  52 W13        N/A
* SACO         N/A       80  54  41 VRB6G13    N/A   HI  80
$$

MTZ028>042-056>058-210100-
SOUTHCENTRAL AND SOUTHEAST MONTANA
CITY           SKY/WX    TMP DP  RH WIND       PRES   REMARKS
BAKER          MOCLDY    75  55  50 N5        29.81R
BILLINGS       PTCLDY    82  45  27 E12       29.82S
LIVINGSTON     LGT RAIN  59 N/A N/A N8        29.96R
MILES CITY     MOCLDY    82  50  33 N13       29.78R
* LAUREL APT   PTCLDY    82  45  27 NE5        N/A
* ROUNDUP APT  PTCLDY    79  46  31 N/A        N/A
* ALZADA       N/A       81  50  34 NW8G15     N/A
* HYSHAM       N/A       80  44  28 NE3        N/A
* LAME DEER    N/A       75  44  33 N8         N/A
* REED POINT   N/A       68  44  42 W18G45     N/A
* ROSCOE HILL  N/A       73  42  33 E11        N/A
$$

REGIONAL REPORTS...DAKOTAS
CITY           SKY/WX    TMP DP  RH WIND       PRES   REMARKS
WILLISTON      CLOUDY    72  64  76 SE6       29.74S
DICKINSON      CLOUDY    72  63  73 N8        29.75S
BEACH          N/A       70  63  79 NE8       29.80R
CROSBY         CLEAR     68  68 100 S6        29.75S
TIOGA          MOCLDY    70  68  93 CALM      29.79S
WATFORD CITY   CLOUDY    70  61  73 CALM      29.74S
BISMARCK       TSTM      72  68  87 NE13      29.73R
GRAND FORKS    MOCLDY    82  66  58 SE9       29.77S HI  84
FARGO          CLOUDY    81  66  60 SE12      29.76F HI  83
BUFFALO SD     CLEAR     77  57  50 N18       29.72R
RAPID CITY     PTCLDY    82  54  38 N15G25    29.74S
$$

REGIONAL REPORTS...WYOMING/IDAHO/WASHINGTON
CITY           SKY/WX    TMP DP  RH WIND       PRES   REMARKS
GILLETTE       CLEAR     81  45  28 NW7       29.87S
SHERIDAN       PTCLDY    77  46  33 W8        29.86S
CODY           PTCLDY    73  45  37 SE9       29.91F
YELLOWSTONE LA MOCLDY    52  41  66 NW13G24   30.13R
SALMON         CLOUDY    64  50  61 CALM      29.93F
MULLAN PASS    PTCLDY    57  48  72 CALM      29.99S
SAND POINT     HVY RAIN  61  61 100 E5        29.86R VSB 2 1/2
SPOKANE        PTCLDY    77  48  36 S8G17     29.81F
$$

REGIONAL REPORTS...ALBERTA
CITY           SKY/WX    TMP DP  RH WIND       PRES   REMARKS
CALGARY        N/A       55  52  90 N7        29.99R
LETHBRIDGE     LGT RAIN  57  55  93 VRB2      29.93R
MEDICINE HAT   LGT RAIN  63  61  93 N7        29.86S
EDMONTON       PTCLDY    63  45  52 NW7       29.95R
WATERTON GATE  N/A       54  50  86 N5         N/A
CARDSTON       N/A       52  52 100 W3         N/A
MILK RIVER     N/A       61  54  78 N12        N/A
$$

REGIONAL REPORTS...SASKATCHEWAN
CITY           SKY/WX    TMP DP  RH WIND       PRES   REMARKS
SWIFT CURRENT  MOCLDY    73  48  41 NW9       29.79R
MOOSE JAW      CLOUDY    73  59  62 N8        29.75S
REGINA         MOCLDY    72  63  73 N6        29.75S
VAL MARIE      N/A       77  50  39 N10        N/A
ASSINIBOIA     N/A       73  55  53 N10        N/A
CORONACH       N/A       72  57  59 S3         N/A

$$



USA.gov is the U.S. government's official web portal to all federal, state and local government web resources and services.